Location: Buchdorf
(48.7842°N, 10.8275°E)
Time: 23:29:51
(UTC+00:00)

N. Korean satellite - Pass Details

Date: 12 March 2021
Orbit: 453 x 499 km, 97.2° (Epoch: 12 April)

Event Time Altitude Azimuth Distance (km) Brightness Sun altitude
Rises 04:28:41 0° 17° (NNE) 2,554 10.6 -11.9°
Reaches altitude 10° 04:30:48 10° 23° (NNE) 1,677 9.7 -11.6°
Maximum altitude 04:34:19 49° 99° (E) 638 7.6 -11.0°
Drops below altitude 10° 04:37:51 10° 176° (S) 1,685 9.3 -10.4°
Sets 04:39:58 0° 182° (S) 2,568 10.2 -10.1°
